DW6558 Weather Reports


time (UTC)temp
C
wind
direction
speed
KPH
gust
KPH
rain 1hr
cm
rain 24hr
cm
rain mn
cm
humidity
%
barometer
mb
20260508174132 18 271 17.7 24.1 0.00 0.00 0.00 30 931.6
20260508173629 18 254 9.7 12.9 0.00 0.00 0.00 30 931.3
20260508173125 17 317 9.7 20.9 0.00 0.00 0.00 31 931.5
20260508172622 17 273 9.7 17.7 0.00 0.00 0.00 31 931.9
20260508172119 18 253 9.7 22.5 0.00 0.00 0.00 31 931.7
20260508171615 18 281 11.3 20.9 0.00 0.00 0.00 30 931.6
20260508171112 17 254 12.9 16.1 0.00 0.00 0.00 30 931.5
20260508170609 17 316 9.7 20.9 0.00 0.00 0.00 30 931.7
20260508170107 17 350 6.4 14.5 0.00 0.00 0.00 31 931.6
20260508165603 17 306 8.0 22.5 0.00 0.00 0.00 33 931.5
20260508165100 17 278 6.4 9.7 0.00 0.00 0.00 31 931.8
20260508164556 17 257 6.4 16.1 0.00 0.00 0.00 32 931.8
20260508164053 17 354 11.3 16.1 0.00 0.00 0.00 33 931.7
20260508163551 17 257 1.6 20.9 0.00 0.00 0.00 33 931.6
20260508163048 17 358 1.6 14.5 0.00 0.00 0.00 31 931.8
20260508162544 17 191 8.0 11.3 0.00 0.00 0.00 31 931.3
20260508162042 17 343 12.9 17.7 0.00 0.00 0.00 32 931.6
20260508161538 16 232 6.4 20.9 0.00 0.00 0.00 33 931.6
20260508161036 16 269 14.5 20.9 0.00 0.00 0.00 33 931.5
20260508160534 16 261 4.8 17.7 0.00 0.00 0.00 33 931.3
20260508160031 16 270 6.4 14.5 0.00 0.00 0.00 35 931.5
20260508155528 16 269 11.3 22.5 0.00 0.00 0.00 33 931.7
20260508155025 16 332 3.2 11.3 0.00 0.00 0.00 34 931.6
20260508154522 15 323 11.3 17.7 0.00 0.00 0.00 34 931.7
20260508154019 15 262 14.5 16.1 0.00 0.00 0.00 34 931.7
20260508153515 15 312 8.0 16.1 0.00 0.00 0.00 35 931.2
20260508153012 16 319 9.7 11.3 0.00 0.00 0.00 39 931.6
20260508152509 15 254 4.8 11.3 0.00 0.00 0.00 39 931.6
20260508152004 15 260 4.8 8.0 0.00 0.00 0.00 42 931.5
20260508151501 15 146 3.2 3.2 0.00 0.00 0.00 44 931.5
20260508150958 15 170 4.8 9.7 0.00 0.00 0.00 47 931.7
20260508150455 14 57 0.0 1.6 0.00 0.00 0.00 48 931.5
20260508145950 13 79 3.2 4.8 0.00 0.00 0.00 49 931.6
20260508145447 13 60 0.0 1.6 0.00 0.00 0.00 49 931.6
20260508144944 13 37 0.0 3.2 0.00 0.00 0.00 51 931.8
20260508144442 13 68 0.0 0.0 0.00 0.00 0.00 49 931.6
20260508143939 12 63 0.0 0.0 0.00 0.00 0.00 50 931.6
20260508143437 12 67 0.0 0.0 0.00 0.00 0.00 51 931.6
20260508142932 11 67 0.0 0.0 0.00 0.00 0.00 54 931.6
20260508142430 11 49 0.0 1.6 0.00 0.00 0.00 56 931.6
20260508141926 11 60 1.6 1.6 0.00 0.00 0.00 58 931.8
20260508141423 10 70 0.0 3.2 0.00 0.00 0.00 59 931.7
20260508140921 10 68 0.0 0.0 0.00 0.00 0.00 62 931.8
20260508140417 8 62 3.2 4.8 0.00 0.00 0.00 64 931.8
20260508135913 7 79 3.2 3.2 0.00 0.00 0.00 66 931.9
20260508135410 7 66 1.6 3.2 0.00 0.00 0.00 69 932.1
20260508134907 6 77 3.2 3.2 0.00 0.00 0.00 71 932.1
20260508134403 6 64 1.6 1.6 0.00 0.00 0.00 70 932.4
20260508133859 6 91 0.0 0.0 0.00 0.00 0.00 70 932.6
20260508133358 6 126 4.8 9.7 0.00 0.00 0.00 70 932.9
20260508132854 6 116 4.8 4.8 0.00 0.00 0.00 70 933.3
20260508132352 5 123 4.8 4.8 0.00 0.00 0.00 71 933.1
20260508131848 5 112 4.8 8.0 0.00 0.00 0.00 73 932.7
20260508131344 5 101 3.2 4.8 0.00 0.00 0.00 73 932.1
20260508130841 5 117 0.0 3.2 0.00 0.00 0.00 73 931.2
20260508130338 4 116 4.8 4.8 0.00 0.00 0.00 75 931.1
20260508125834 3 93 3.2 4.8 0.00 0.00 0.00 78 930.8
20260508125330 3 96 0.0 4.8 0.00 0.00 0.00 78 931.0
20260508124828 2 121 0.0 0.0 0.00 0.00 0.00 79 930.8
20260508124325 2 102 3.2 8.0 0.00 0.00 0.00 80 930.8
20260508123823 2 117 0.0 0.0 0.00 0.00 0.00 82 930.7
20260508123321 2 121 4.8 4.8 0.00 0.00 0.00 82 930.8
20260508122817 2 98 3.2 4.8 0.00 0.00 0.00 82 930.5
20260508122314 1 83 0.0 0.0 0.00 0.00 0.00 82 930.7
20260508121812 1 82 0.0 3.2 0.00 0.00 0.00 82 930.7
20260508121310 2 70 0.0 0.0 0.00 0.00 0.00 81 930.7
20260508120807 2 119 0.0 3.2 0.00 0.00 0.00 82 930.4
20260508120305 2 82 1.6 3.2 0.00 0.00 0.00 82 930.5
20260508115802 2 75 1.6 3.2 0.00 0.00 0.00 82 930.4
20260508115259 2 70 1.6 3.2 0.00 0.00 0.00 83 930.4
20260508114756 2 79 3.2 3.2 0.00 0.00 0.00 83 930.5
20260508114253 2 67 1.6 3.2 0.00 0.00 0.00 83 930.5
20260508113749 2 81 1.6 3.2 0.00 0.00 0.00 83 930.4
20260508113248 2 61 1.6 1.6 0.00 0.00 0.00 83 930.3
20260508112744 1 52 0.0 1.6 0.00 0.00 0.00 83 930.4
20260508112241 2 53 0.0 0.0 0.00 0.00 0.00 82 930.7
20260508111737 2 54 0.0 1.6 0.00 0.00 0.00 81 930.4
20260508111235 2 81 3.2 4.8 0.00 0.00 0.00 82 930.4
20260508110732 2 49 1.6 1.6 0.00 0.00 0.00 81 930.5
20260508110229 2 75 3.2 3.2 0.00 0.00 0.00 80 930.4
20260508105724 3 83 3.2 4.8 0.00 0.00 0.00 79 930.4
20260508105221 3 82 3.2 4.8 0.00 0.00 0.00 79 930.0
20260508104718 3 93 4.8 4.8 0.00 0.00 0.00 80 930.1
20260508104215 3 76 1.6 4.8 0.00 0.00 0.00 80 930.3
20260508103712 3 119 4.8 4.8 0.00 0.00 0.00 81 930.3
20260508103209 3 106 3.2 8.0 0.00 0.00 0.00 81 930.4
20260508102706 3 130 6.4 8.0 0.00 0.00 0.00 81 930.4
20260508102204 3 106 4.8 8.0 0.00 0.00 0.00 80 930.4
20260508101701 3 106 3.2 3.2 0.00 0.00 0.00 80 930.3
20260508101159 3 108 6.4 9.7 0.00 0.00 0.00 80 930.4
20260508100656 3 102 6.4 9.7 0.00 0.00 0.00 80 930.4
20260508100154 3 111 4.8 8.0 0.00 0.00 0.00 80 930.3
20260508095650 3 91 0.0 8.0 0.00 0.00 0.00 81 930.3
20260508095147 3 159 6.4 9.7 0.00 0.00 0.00 80 930.3
20260508094644 3 126 6.4 11.3 0.00 0.00 0.00 80 930.2
20260508094141 3 122 4.8 8.0 0.00 0.00 0.00 80 930.3
20260508093638 3 92 6.4 8.0 0.00 0.00 0.00 80 930.4
20260508093136 3 119 4.8 11.3 0.00 0.00 0.00 80 930.3
20260508092633 3 130 8.0 12.9 0.00 0.00 0.00 80 930.2
20260508092131 3 124 4.8 8.0 0.00 0.00 0.00 80 930.4
20260508091628 3 65 1.6 4.8 0.00 0.00 0.00 81 930.0
20260508091125 3 104 3.2 4.8 0.00 0.00 0.00 80 930.3
20260508090623 3 114 3.2 8.0 0.00 0.00 0.00 80 930.5
20260508090120 3 120 4.8 8.0 0.00 0.00 0.00 80 930.4
20260508085616 3 93 1.6 4.8 0.00 0.00 0.00 79 930.4
20260508085113 3 107 3.2 4.8 0.00 0.00 0.00 79 930.5
20260508084610 3 120 4.8 8.0 0.00 0.00 0.00 79 930.5
20260508084108 3 121 4.8 8.0 0.00 0.00 0.00 79 930.4
20260508083605 3 122 4.8 8.0 0.00 0.00 0.00 79 930.4
20260508083102 3 123 4.8 8.0 0.00 0.00 0.00 79 930.5
20260508082557 3 120 4.8 8.0 0.00 0.00 0.00 78 930.7
20260508082054 4 122 4.8 9.7 0.00 0.00 0.00 78 930.5
20260508081552 4 109 6.4 9.7 0.00 0.00 0.00 77 930.7
20260508081047 4 127 8.0 11.3 0.00 0.00 0.00 77 930.4
20260508080546 5 125 9.7 11.3 0.00 0.00 0.00 75 930.7
20260508080043 5 144 6.4 9.7 0.00 0.00 0.00 75 930.5
20260508075539 5 92 3.2 4.8 0.00 0.00 0.00 75 930.5
20260508075037 5 106 4.8 8.0 0.00 0.00 0.00 74 930.9
20260508074534 5 120 1.6 4.8 0.00 0.00 0.00 74 930.8
20260508074031 5 102 3.2 4.8 0.00 0.00 0.00 75 930.7
20260508073528 5 114 4.8 8.0 0.00 0.00 0.00 76 930.5
20260508073026 5 139 8.0 9.7 0.00 0.00 0.00 76 930.8
20260508072521 5 131 4.8 8.0 0.00 0.00 0.00 75 930.5
20260508072019 5 87 0.0 0.0 0.00 0.00 0.00 75 930.9
20260508071517 5 125 3.2 4.8 0.00 0.00 0.00 75 930.5
20260508071014 5 126 4.8 8.0 0.00 0.00 0.00 74 930.5
20260508070512 5 100 0.0 3.2 0.00 0.00 0.00 74 930.5
20260508070010 5 120 0.0 4.8 0.00 0.00 0.00 74 930.4
20260508065507 5 115 3.2 8.0 0.00 0.00 0.00 74 930.5
20260508065006 5 114 0.0 0.0 0.00 0.00 0.00 74 930.5
20260508064503 5 109 0.0 1.6 0.00 0.00 0.00 74 930.7
20260508064000 5 118 1.6 3.2 0.00 0.00 0.00 75 930.3
20260508063457 5 91 0.0 0.0 0.00 0.00 0.00 74 930.4
20260508062955 5 117 0.0 0.0 0.00 0.00 0.00 73 930.5
20260508062453 5 135 0.0 0.0 0.00 0.00 0.00 73 930.4
20260508061949 5 87 0.0 0.0 0.00 0.00 0.00 72 930.3
20260508061447 5 92 0.0 0.0 0.00 0.00 0.00 73 930.5
20260508060943 5 97 0.0 0.0 0.00 0.00 0.00 72 930.2
20260508060441 5 60 0.0 0.0 0.00 0.00 0.00 72 930.4
20260508055937 6 66 0.0 0.0 0.00 0.00 0.00 71 930.2
20260508055434 6 73 0.0 1.6 0.00 0.00 0.00 71 930.2
20260508054930 6 66 0.0 0.0 0.00 0.00 0.00 69 930.3
20260508054428 6 70 0.0 0.0 0.00 0.00 0.00 70 930.3
20260508053924 6 73 0.0 0.0 0.00 0.00 0.00 70 930.1
20260508053421 7 97 0.0 0.0 0.00 0.00 0.00 70 930.3
20260508052919 7 104 0.0 0.0 0.00 0.00 0.00 70 930.2
20260508052416 7 119 0.0 0.0 0.00 0.00 0.00 69 930.3
20260508051912 7 121 0.0 0.0 0.00 0.00 0.00 69 930.1
20260508051408 7 80 0.0 0.0 0.00 0.00 0.00 68 930.4
20260508050904 7 58 0.0 0.0 0.00 0.00 0.00 65 930.3
20260508050401 8 59 0.0 0.0 0.00 0.00 0.00 64 930.3
20260508045857 8 59 0.0 1.6 0.00 0.00 0.00 64 930.2
20260508045355 8 81 0.0 0.0 0.00 0.00 0.00 63 930.3
20260508044852 8 64 0.0 0.0 0.00 0.00 0.00 62 930.2
20260508044348 9 64 0.0 0.0 0.00 0.00 0.00 61 930.4
20260508043844 10 64 0.0 0.0 0.00 0.00 0.00 60 930.3
20260508043342 10 66 0.0 0.0 0.00 0.00 0.00 59 930.1
20260508042838 10 91 0.0 0.0 0.00 0.00 0.00 57 930.1
20260508042336 11 83 0.0 0.0 0.00 0.00 0.00 57 930.3
20260508041833 11 70 0.0 0.0 0.00 0.00 0.00 54 930.4
20260508041329 11 68 0.0 0.0 0.00 0.00 0.00 55 930.3
20260508040826 11 65 0.0 0.0 0.00 0.00 0.00 56 930.1
20260508040323 11 65 0.0 0.0 0.00 0.00 0.00 55 930.3
20260508035820 11 61 0.0 3.2 0.00 0.00 0.00 55 930.3
20260508035318 11 79 0.0 1.6 0.00 0.00 0.00 56 930.3
20260508034814 11 193 4.8 4.8 0.00 0.00 0.00 55 930.0
20260508034312 11 96 3.2 3.2 0.00 0.00 0.00 56 929.9
20260508033808 11 77 6.4 8.0 0.00 0.00 0.00 53 930.1
20260508033307 12 23 0.0 1.6 0.00 0.00 0.00 49 929.9
20260508032804 12 327 3.2 3.2 0.00 0.00 0.00 49 929.7
20260508032301 13 4 1.6 4.8 0.00 0.00 0.00 48 929.7
20260508031758 13 287 8.0 12.9 0.00 0.00 0.00 47 929.6
20260508031254 13 12 0.0 0.0 0.00 0.00 0.00 47 929.7
20260508030751 13 286 3.2 4.8 0.00 0.00 0.00 46 929.5
20260508030248 13 351 3.2 8.0 0.00 0.00 0.00 45 929.5
20260508025744 13 296 3.2 9.7 0.00 0.00 0.00 45 929.5
20260508025241 14 286 0.0 1.6 0.00 0.00 0.00 43 929.3
20260508024738 15 309 0.0 4.8 0.00 0.00 0.00 42 929.3
20260508024235 15 329 4.8 11.3 0.00 0.00 0.00 41 929.4
20260508023732 15 298 8.0 12.9 0.00 0.00 0.00 41 929.1
20260508023229 15 334 3.2 11.3 0.00 0.00 0.00 40 928.8
20260508022724 15 346 4.8 14.5 0.00 0.00 0.00 40 928.9
20260508022221 15 243 4.8 11.3 0.00 0.00 0.00 40 929.1
20260508021718 15 300 4.8 12.9 0.00 0.00 0.00 39 929.1
20260508021214 16 311 8.0 16.1 0.00 0.00 0.00 39 929.1
20260508020711 16 345 9.7 12.9 0.00 0.00 0.00 38 929.2
20260508020208 16 239 1.6 17.7 0.00 0.00 0.00 38 928.8
20260508015706 16 277 9.7 12.9 0.00 0.00 0.00 37 929.4
20260508015202 16 298 3.2 16.1 0.00 0.00 0.00 36 929.2
20260508014659 16 307 3.2 12.9 0.00 0.00 0.00 36 929.1
20260508014155 16 301 3.2 17.7 0.00 0.00 0.00 35 929.2
20260508013652 17 330 16.1 25.7 0.00 0.00 0.00 34 929.2
20260508013148 17 256 9.7 20.9 0.00 0.00 0.00 35 929.3
20260508012646 17 307 12.9 17.7 0.00 0.00 0.00 34 929.3
20260508012143 17 348 9.7 14.5 0.00 0.00 0.00 34 929.5
20260508011641 17 303 14.5 24.1 0.00 0.00 0.00 33 929.5
20260508011138 18 259 11.3 14.5 0.00 0.00 0.00 33 929.7
20260508010635 17 252 9.7 16.1 0.00 0.00 0.00 33 929.7
20260508010133 18 269 12.9 14.5 0.00 0.00 0.00 33 929.7
20260508005630 17 252 9.7 24.1 0.00 0.00 0.00 33 929.7
20260508005126 18 266 8.0 17.7 0.00 0.00 0.00 33 929.6
20260508004622 18 245 8.0 14.5 0.00 0.00 0.00 33 929.9
20260508004119 17 231 14.5 20.9 0.00 0.00 0.00 32 929.6
20260508003615 17 332 8.0 25.7 0.00 0.00 0.00 32 929.5
20260508003113 18 324 12.9 14.5 0.00 0.00 0.00 32 929.7
20260508002609 18 288 8.0 24.1 0.00 0.00 0.00 32 929.7
20260508002107 17 275 8.0 16.1 0.00 0.00 0.00 34 930.0
20260508001602 17 240 11.3 25.7 0.00 0.00 0.00 34 929.6
20260508001058 17 26 1.6 17.7 0.00 0.00 0.00 35 929.7
20260508000554 17 249 0.0 16.1 0.00 0.00 0.00 34 930.0
20260508000052 17 250 8.0 12.9 0.00 0.00 0.00 34 929.7
20260507235548 17 268 9.7 20.9 0.00 0.00 0.00 34 930.0
20260507235046 17 347 11.3 24.1 0.00 0.00 0.00 35 929.7
20260507234542 17 244 8.0 20.9 0.00 0.00 0.00 34 930.0
20260507234038 16 295 12.9 27.4 0.00 0.00 0.00 35 929.4
20260507233535 16 16 17.7 22.5 0.00 0.00 0.00 36 929.5
20260507233034 16 285 11.3 29.0 0.00 0.00 0.00 36 929.6
20260507232530 16 242 6.4 16.1 0.00 0.00 0.00 36 929.5
20260507232027 16 343 9.7 24.1 0.00 0.00 0.00 35 929.6
20260507231524 16 264 9.7 17.7 0.00 0.00 0.00 36 930.1
20260507231021 16 338 11.3 22.5 0.00 0.00 0.00 36 930.0
20260507230518 16 351 8.0 20.9 0.00 0.00 0.00 36 930.0
20260507230014 16 310 14.5 24.1 0.00 0.00 0.00 35 930.1
20260507225510 16 332 14.5 29.0 0.00 0.00 0.00 34 930.1
20260507225006 16 251 4.8 20.9 0.00 0.00 0.00 34 930.0
20260507224502 16 260 14.5 20.9 0.00 0.00 0.00 34 930.0
20260507223958 16 244 14.5 20.9 0.00 0.00 0.00 34 930.1
20260507223454 16 308 17.7 29.0 0.00 0.00 0.00 33 930.3
20260507222952 16 32 12.9 24.1 0.00 0.00 0.00 33 930.4
20260507222448 16 256 11.3 33.8 0.00 0.00 0.00 34 930.3
20260507221945 17 287 11.3 20.9 0.00 0.00 0.00 33 930.4
20260507221442 17 286 17.7 22.5 0.00 0.00 0.00 33 930.4
20260507220938 16 352 14.5 24.1 0.00 0.00 0.00 33 930.4
20260507220436 16 319 6.4 22.5 0.00 0.00 0.00 33 930.5
20260507215932 16 22 14.5 24.1 0.00 0.00 0.00 32 930.3
20260507215429 17 300 8.0 22.5 0.00 0.00 0.00 31 930.4
20260507214926 17 317 19.3 29.0 0.00 0.00 0.00 31 930.9
20260507214424 17 313 12.9 38.6 0.00 0.00 0.00 31 930.9
20260507213919 17 312 14.5 29.0 0.00 0.00 0.00 31 930.8
20260507213416 17 358 12.9 33.8 0.00 0.00 0.00 33 930.7
20260507212913 17 289 11.3 14.5 0.00 0.00 0.00 32 931.0
20260507212409 17 295 19.3 24.1 0.00 0.00 0.00 32 930.9
20260507211906 16 331 12.9 25.7 0.00 0.00 0.00 34 930.5
20260507211402 16 247 8.0 20.9 0.00 0.00 0.00 32 930.9
20260507210859 16 321 27.4 41.8 0.00 0.00 0.00 32 930.7
20260507210356 17 308 6.4 20.9 0.00 0.00 0.00 33 930.8
20260507205852 17 236 14.5 27.4 0.00 0.00 0.00 32 930.7
20260507205349 17 261 1.6 22.5 0.00 0.00 0.00 33 930.7
20260507204846 17 260 11.3 25.7 0.00 0.00 0.00 32 930.7
20260507204343 17 261 19.3 33.8 0.00 0.00 0.00 31 930.8
20260507203841 17 289 14.5 33.8 0.00 0.00 0.00 32 930.7
20260507203338 17 295 17.7 29.0 0.00 0.00 0.00 30 930.7
20260507202834 17 341 16.1 32.2 0.00 0.00 0.00 32 930.3
20260507202331 17 298 12.9 29.0 0.00 0.00 0.00 33 930.4
20260507201826 17 312 17.7 29.0 0.00 0.00 0.00 31 930.7
20260507201322 17 323 12.9 32.2 0.00 0.00 0.00 32 930.7
20260507200819 17 304 19.3 33.8 0.00 0.00 0.00 31 930.7
20260507200315 17 184 17.7 32.2 0.00 0.00 0.00 32 930.7
20260507195811 18 1 14.5 27.4 0.00 0.00 0.00 31 930.7
20260507195308 18 317 24.1 27.4 0.00 0.00 0.00 29 930.5
20260507194806 18 300 22.5 37.0 0.00 0.00 0.00 31 930.8
20260507194302 19 274 16.1 32.2 0.00 0.00 0.00 31 930.8
20260507193758 18 190 16.1 22.5 0.00 0.00 0.00 34 930.7
20260507193255 17 287 1.6 22.5 0.00 0.00 0.00 35 930.8
20260507192751 17 289 17.7 32.2 0.00 0.00 0.00 35 930.9
20260507192248 17 299 20.9 29.0 0.00 0.00 0.00 35 931.1
20260507191744 17 307 20.9 29.0 0.00 0.00 0.00 33 930.9
20260507191241 17 266 3.2 20.9 0.00 0.00 0.00 36 930.8
20260507190738 17 257 16.1 20.9 0.00 0.00 0.00 35 931.0
20260507190236 16 317 3.2 17.7 0.00 0.00 0.00 37 930.8
20260507185735 17 308 12.9 20.9 0.00 0.00 0.00 36 931.0
20260507185231 16 266 9.7 14.5 0.00 0.00 0.00 37 930.9
20260507184729 17 259 24.1 38.6 0.00 0.00 0.00 36 931.1
20260507184227 17 269 8.0 14.5 0.00 0.00 0.00 37 930.9
20260507183723 16 275 9.7 29.0 0.00 0.00 0.00 36 930.9
20260507183220 16 264 12.9 27.4 0.00 0.00 0.00 36 931.1
20260507182717 16 240 17.7 22.5 0.00 0.00 0.00 35 930.9
20260507182212 16 271 11.3 14.5 0.00 0.00 0.00 36 931.2
20260507181709 16 270 19.3 33.8 0.00 0.00 0.00 36 931.1
20260507181206 16 252 12.9 29.0 0.00 0.00 0.00 36 931.0
20260507180702 16 216 11.3 17.7 0.00 0.00 0.00 35 931.0
20260507180159 15 330 11.3 29.0 0.00 0.00 0.00 36 931.1
20260507175655 15 287 20.9 27.4 0.00 0.00 0.00 36 931.2
20260507175152 16 253 11.3 24.1 0.00 0.00 0.00 36 931.3
20260507174649 16 271 17.7 29.0 0.00 0.00 0.00 36 931.3